Weather History for KDAN - May, 2013

Change the Weather History Date:

Wednesday, May 1, 2013

  Actual Average Record
Temperature  
Mean Temperature 63 °F 62 °F  
Max Temperature 69 °F 74 °F 91 °F (1962)
Min Temperature 56 °F 51 °F 37 °F (1996)
Degree Days  
Heating Degree Days 2 4  
Month to date heating degree days 2 4  
Since 1 July heating degree days 3671 3747  
Cooling Degree Days 0 2  
Month to date cooling degree days 0 2  
Year to date cooling degree days 48 36  
Growing Degree Days 12 (Base 50)    
Moisture  
Dew Point 52 °F    
Average Humidity 74    
Maximum Humidity 93    
Minimum Humidity 55    
Precipitation  
Precipitation 0.00 in 0.09 in 0.69 in (1953)
Month to date precipitation 0.00 0.09  
Year to date precipitation 15.40 14.09  
Snow  
Snow 0.00 in - - ()
Month to date snowfall 0.0  
Since 1 July snowfall 1.7  
Snow Depth 0.00 in    
Sea Level Pressure  
Sea Level Pressure 30.27 in    
Wind  
Wind Speed 10 mph (NE)    
Max Wind Speed 16 mph    
Max Gust Speed 22 mph    
Visibility 10 miles    
Events      
T = Trace of Precipitation, MM = Missing Value Source: NWS Daily Summary

Daily Weather History Graph

Daily Weather History Graph

Search for Another Location

Airport or City:

Trip Planner

Search our weather history database for the weather conditions in past years. The results will help you decide how hot, cold, wet, or windy it might be!

Date:

Astronomy

May. 01, 2013 Rise Set
Actual Time 6:23 AM EDT 8:05 PM EDT
Civil Twilight 5:55 AM EDT 8:33 PM EDT
Nautical Twilight 5:22 AM EDT 9:07 PM EDT
Astronomical Twilight 4:46 AM EDT 9:42 PM EDT
Moon 1:13 AM EDT (5/1) 11:59 AM EDT (5/1)
Length of Visible Light 14h 37m
Length of Day
13h 42m
Waning Gibbous, 59% of the Moon is Illuminated
May 1
Waning Gibbous
May 2
Last Quarter
May 9
New
May 18
First Quarter
May 25
Full

Hourly Weather History & Observations

Time (EDT) Temp. Dew Point Humidity Pressure Visibility Wind Dir Wind Speed Gust Speed Precip Events Conditions
12:53 AM 60.1 °F 54.0 °F 80% 30.20 in 10.0 mi NNE 11.5 mph - N/A   Overcast
1:04 AM 60.8 °F 53.6 °F 77% 30.22 in 10.0 mi NE 12.7 mph - N/A   Overcast
2:53 AM 57.9 °F 53.1 °F 84% 30.19 in 10.0 mi NNE 13.8 mph 18.4 mph N/A   Overcast
3:38 AM 57.2 °F 53.6 °F 88% 30.21 in 10.0 mi NE 9.2 mph - N/A   Overcast
3:53 AM 57.9 °F 54.0 °F 87% 30.19 in 10.0 mi NE 8.1 mph - N/A   Overcast
4:53 AM 57.0 °F 54.0 °F 89% 30.20 in 10.0 mi NNE 8.1 mph - N/A   Overcast
5:53 AM 57.0 °F 54.0 °F 89% 30.20 in 10.0 mi NNE 10.4 mph - N/A   Overcast
6:53 AM 57.0 °F 53.1 °F 87% 30.23 in 10.0 mi NE 9.2 mph - N/A   Overcast
7:53 AM 55.9 °F 53.1 °F 90% 30.26 in 8.0 mi NNE 10.4 mph - N/A   Overcast
8:53 AM 55.9 °F 52.0 °F 87% 30.28 in 10.0 mi NE 10.4 mph - N/A   Overcast
9:53 AM 57.0 °F 53.1 °F 87% 30.29 in 10.0 mi NE 11.5 mph 17.3 mph N/A   Overcast
10:29 AM 57.2 °F 53.6 °F 88% 30.32 in 2.5 mi NNE 11.5 mph - N/A   Overcast
10:33 AM 57.2 °F 53.6 °F 88% 30.32 in 3.0 mi NE 9.2 mph - N/A   Overcast
10:58 AM 59.0 °F 53.6 °F 82% 30.32 in 10.0 mi NNE 10.4 mph - N/A   Overcast
11:24 AM 62.6 °F 53.6 °F 72% 30.32 in 10.0 mi NE 13.8 mph 18.4 mph N/A   Overcast
11:51 AM 62.6 °F 53.6 °F 72% 30.31 in 10.0 mi NE 15.0 mph - N/A   Overcast
11:53 AM 63.0 °F 53.1 °F 70% 30.29 in 10.0 mi NNE 12.7 mph - N/A   Overcast
12:01 PM 64.4 °F 53.6 °F 68% 30.31 in 10.0 mi NNE 13.8 mph - N/A   Overcast
12:53 PM 64.0 °F 52.0 °F 65% 30.28 in 10.0 mi ENE 10.4 mph - N/A   Overcast
1:37 PM 66.2 °F 51.8 °F 60% 30.30 in 10.0 mi NE 6.9 mph - N/A   Overcast
1:53 PM 66.0 °F 52.0 °F 60% 30.28 in 10.0 mi NE 9.2 mph - N/A   Overcast
2:53 PM 69.1 °F 53.1 °F 57% 30.25 in 10.0 mi ENE 11.5 mph 19.6 mph N/A   Overcast
3:53 PM 68.0 °F 52.0 °F 56% 30.25 in 10.0 mi ENE 12.7 mph 17.3 mph N/A   Overcast
4:53 PM 66.0 °F 52.0 °F 60% 30.27 in 10.0 mi East 9.2 mph 21.9 mph N/A   Overcast
5:53 PM 62.1 °F 52.0 °F 70% 30.30 in 10.0 mi ENE 12.7 mph 19.6 mph N/A   Overcast
6:53 PM 62.1 °F 51.1 °F 67% 30.29 in 10.0 mi ENE 8.1 mph - N/A   Overcast
7:53 PM 61.0 °F 51.1 °F 70% 30.30 in 10.0 mi ENE 6.9 mph - N/A   Overcast
8:53 PM 61.0 °F 50.0 °F 67% 30.31 in 10.0 mi ENE 6.9 mph - N/A   Overcast
9:53 PM 61.0 °F 48.9 °F 64% 30.33 in 10.0 mi ENE 8.1 mph - N/A   Overcast
10:53 PM 60.1 °F 46.9 °F 62% 30.34 in 10.0 mi ENE 8.1 mph - N/A   Overcast
11:53 PM 59.0 °F 44.1 °F 58% 30.34 in 10.0 mi ENE 6.9 mph 16.1 mph N/A   Overcast